Flag for Poland Weather past 2 weeks in Wroclaw, Poland

Now
41 °F

Passing clouds.


Feels Like: 33 °F
Forecast: 31 / 39 °F
Wind: 15 mph from West

Location: Wroclaw Ii

Current Time: Jan 29, 2015 at 1:26:09 PM

Latest Report: Jan 29, 2015 at 1:00 PM


Visibility: N/A

Pressure: 29.36 "Hg

Humidity: 57%

Dew point: 27 °F

Location of WroclawLocation

Historic Weather in Wroclaw — Graph

°F

Wroclaw temperature yesterday

Maximum temperature yesterday: 41 °F (at 12:30 PM)
Minimum temperature yesterday: 36 °F (at 5:00 AM)
Average temperature yesterday: 38 °F

Past Weeks' High & Low Weather Summary

 TemperatureHumidityPressure
High54 °F (Jan 14, 12:00 PM)93% (Jan 16, 7:30 PM)30.27 "Hg (Jan 16, 7:30 PM)
Low27 °F (Jan 26, 10:30 PM)47% (Jan 14, 12:30 PM)29.36 "Hg (Jan 29, 3:30 AM)
Average37 °F83%29.96 "Hg
* Reported Jan 14 12:00 Noon — Jan 29 12:30 PM, Wroclaw, Weather by CustomWeather, © 2014

Note: Actual official high and low records may vary slightly from our data, if they occured in-between our weather recording intervals... More about our weather records

Advertising

Wroclaw weather history for previous 24 hours

 ConditionsComfort  
Time TempWeatherWind HumidityBarometerVisibility
12:30 PM
Jan 29
43 °FPassing clouds.13 mph53%29.36 "HgN/A
12:00 PM41 °FPassing clouds.12 mph53%29.36 "HgN/A
11:30 AM41 °FPassing clouds.12 mph57%29.39 "HgN/A
11:00 AM41 °FPassing clouds.10 mph53%29.39 "HgN/A
10:30 AM39 °FPassing clouds.9 mph61%29.39 "HgN/A
10:00 AM37 °FSunny.7 mph65%29.39 "Hg10 mi
9:30 AM39 °FPassing clouds.6 mph65%29.39 "HgN/A
9:00 AM37 °FSunny.8 mph70%29.39 "Hg10 mi
8:30 AM37 °FPassing clouds.8 mph70%29.39 "HgN/A
8:00 AM37 °FPassing clouds.8 mph75%29.39 "HgN/A
7:30 AM37 °FClear.8 mph75%29.39 "Hg10 mi
7:00 AM37 °FPassing clouds.7 mph75%29.39 "HgN/A
6:30 AM37 °FPassing clouds.10 mph75%29.39 "HgN/A
6:00 AM37 °FPassing clouds.12 mph70%29.36 "HgN/A
5:30 AM37 °FPassing clouds.13 mph70%29.36 "HgN/A
5:00 AM37 °FPartly cloudy.12 mph70%29.36 "HgN/A
4:30 AM37 °FPassing clouds.14 mph70%29.36 "HgN/A
4:00 AM37 °FPartly cloudy.15 mph70%29.36 "HgN/A
3:30 AM39 °FPassing clouds.14 mph65%29.36 "HgN/A
3:00 AM39 °FPassing clouds.12 mph65%29.39 "HgN/A
2:30 AM39 °FLight snow. Passing clouds.12 mph65%29.39 "HgN/A
2:00 AM39 °FPassing clouds.15 mph61%29.39 "HgN/A
1:30 AM39 °FPassing clouds.13 mph61%29.39 "HgN/A
1:00 AM39 °FPassing clouds.13 mph61%29.42 "HgN/A
12:30 AM39 °FPassing clouds.10 mph61%29.42 "HgN/A
12:00 AM39 °FPassing clouds.12 mph61%29.45 "HgN/A
11:30 PM
Jan 28
39 °FPassing clouds.6 mph61%29.47 "HgN/A
11:00 PM37 °FPassing clouds.7 mph65%29.47 "HgN/A
10:30 PM37 °FPassing clouds.8 mph70%29.50 "HgN/A
10:00 PM36 °FPassing clouds.6 mph75%29.53 "HgN/A
9:30 PM37 °FPassing clouds.8 mph70%29.53 "HgN/A
9:00 PM37 °FPassing clouds.8 mph70%29.56 "HgN/A
8:30 PM37 °FPassing clouds.7 mph70%29.59 "HgN/A
8:00 PM37 °FPassing clouds.6 mph75%29.62 "HgN/A
7:30 PM37 °FPassing clouds.8 mph75%29.65 "HgN/A
7:00 PM37 °FClear.13 mph70%29.62 "Hg10 mi
6:30 PM37 °FPassing clouds.10 mph70%29.68 "HgN/A
6:00 PM37 °FPassing clouds.10 mph70%29.71 "HgN/A
5:30 PM37 °FPassing clouds.7 mph70%29.74 "HgN/A
5:00 PM39 °FPassing clouds.7 mph70%29.77 "HgN/A
4:30 PM39 °FPartly sunny.7 mph70%29.77 "HgN/A
4:00 PM41 °FPartly sunny.7 mph61%29.80 "HgN/A
3:30 PM41 °FPartly sunny.7 mph61%29.80 "HgN/A
3:00 PM41 °FPartly sunny.8 mph61%29.83 "HgN/A
2:30 PM41 °FPartly sunny.7 mph61%29.83 "HgN/A
2:00 PM41 °FPartly sunny.7 mph61%29.86 "HgN/A
1:30 PM41 °FPartly sunny.8 mph57%29.86 "HgN/A
1:00 PM41 °FPartly sunny.12 mph57%29.89 "HgN/A
Weather by CustomWeather, © 2014

See weather overviewHow to use our weather pages